Find Starlink 32233

NORAD ID: 60434 Int'l Des: 2024-144 Owner: SPXS Country: US Constellation: starlink operational
LEOCIRCULAR

リアルタイム位置

3D地球を読み込み中...

Starlink 32233について

説明を読み込み中...

次回通過

Passes for default location (London). Set your location on the main map for personalized predictions.

高度履歴

Loading altitude history...

軌道要素

1 60434U 24144K 26123.58335648 .00029322 00000-0 87599-3 0 9997
2 60434 53.1594 322.0325 0001173 88.6695 333.2686 15.34384897 5779
Epoch: May 3, 2026 • Age: 6 hours

現在のステータス

高度 464.6 km
速度 7.64 km/s
衛星直下点 34.68°N, 172.59°W
打ち上げ日 Aug 12, 2024
運用期間 1.7 years
タイプ internet

技術仕様

分類 Payload
質量 730.00 kg
乾燥質量 700.00 kg
総質量 730.00 kg
長さ 0.30 m
直径 4.10 m
スパン 29.00 m
形状 Box + pan
製造者 SPXS
バスタイプ Starlink V2M
フェーズステータス In Orbit
所有者/国 SPXS/US

Most Searched